M I D A S
Marine Information and Data Acquisition System
Tripno 1959 of the Zeeleeuw from 2010-09-10 06:21:14 to 2010-09-10 13:56:12
Back to CruiseResearch ActivitiesStationsMapUnderway DataData graphs

EquipmentUnitsComments
TimeDGPSUTC
LatitudeDGPSDM.mWGS84
LongitudeDGPSDM.mWGS84
SpeedMeteo Stationm/sRelative wind speed
DirectionMeteo StationdegRelative wind direction
TemperatureMeteo Stationdeg CelciusAir temperature
PressureMeteo StationPaAtmospheric pressure
HumidityMeteo Station%Relative humidity
Missing or incorrect values are displayed as -999
Metereological data collected by the RV Zeeleeuw from 2010-09-10 06:23:44 to 2010-09-10 14:10:37
                                                                                    Next 1000 lines
Time Latitude Longitude Speed Direction Temperature Pressure Humidity
2010-09-10 06:23:54 51°13.661 2°55.96 2.4 34 15.3 101970 46
2010-09-10 06:23:58 51°13.661 2°55.96 2.7 37 15.3 101970 47
2010-09-10 06:24:04 51°13.661 2°55.96 2.4 25 15.3 101970 47
2010-09-10 06:24:09 51°13.661 2°55.96 2.2 26 15.3 101970 47
2010-09-10 06:24:14 51°13.66 2°55.96 1.1 24 15.3 101970 47
2010-09-10 06:24:19 51°13.66 2°55.96 0.8 30 15.3 101970 46
2010-09-10 06:24:24 51°13.66 2°55.959 0.1 41 15.3 101970 46
2010-09-10 06:24:29 51°13.661 2°55.957 0.7 45 15.3 101970 46
2010-09-10 06:24:34 51°13.662 2°55.955 3.2 33 15.3 101970 46
2010-09-10 06:24:39 51°13.663 2°55.952 3.4 24 15.3 101970 47
2010-09-10 06:24:44 51°13.664 2°55.949 4.5 39 15.3 101970 47
2010-09-10 06:24:49 51°13.665 2°55.946 3.4 42 15.3 101970 46
2010-09-10 06:24:55 51°13.666 2°55.941 4 43 15.3 101970 46
2010-09-10 06:25:01 51°13.667 2°55.935 4.2 43 15.3 101970 49
2010-09-10 06:25:06 51°13.669 2°55.93 3.6 38 15.3 101970 49
2010-09-10 06:25:12 51°13.671 2°55.924 4 37 15.3 101970 46
2010-09-10 06:25:18 51°13.673 2°55.917 3.3 39 15.3 101970 46
2010-09-10 06:25:22 51°13.675 2°55.911 4.2 45 15.3 101970 49
2010-09-10 06:25:28 51°13.677 2°55.904 3.8 41 15.3 101970 49
2010-09-10 06:25:33 51°13.679 2°55.897 3.1 23 15.3 101970 48
2010-09-10 06:25:37 51°13.681 2°55.891 3.7 33 15.3 101970 48
2010-09-10 06:25:42 51°13.683 2°55.884 4 41 15.3 101970 48
2010-09-10 06:25:48 51°13.685 2°55.875 4.4 44 15.3 101970 48
2010-09-10 06:25:52 51°13.686 2°55.869 3 43 15.3 101970 47
2010-09-10 06:25:57 51°13.688 2°55.86 4.2 41 15.3 101970 47
2010-09-10 06:26:02 51°13.689 2°55.851 5.2 29 15.3 101970 49
2010-09-10 06:26:08 51°13.691 2°55.841 5.1 34 15.3 101970 49
2010-09-10 06:26:13 51°13.692 2°55.833 6 45 15.3 101970 46
2010-09-10 06:26:18 51°13.693 2°55.824 4.1 43 15.3 101970 46
2010-09-10 06:26:22 51°13.694 2°55.817 5.1 44 15.3 101970 46
2010-09-10 06:26:27 51°13.695 2°55.808 3.8 34 15.3 101970 46
2010-09-10 06:26:33 51°13.696 2°55.797 3.5 21 15.3 101970 48
2010-09-10 06:26:38 51°13.696 2°55.788 4.3 33 15.3 101970 48
2010-09-10 06:26:42 51°13.696 2°55.78 5.1 41 15.3 101970 46
2010-09-10 06:26:47 51°13.695 2°55.772 5.1 34 15.3 101970 46
2010-09-10 06:26:53 51°13.695 2°55.763 3.4 41 15.3 101960 47
2010-09-10 06:26:58 51°13.694 2°55.755 4.4 34 15.3 101960 47
2010-09-10 06:27:02 51°13.694 2°55.75 3.3 38 15.3 101970 47
2010-09-10 06:27:07 51°13.694 2°55.744 3 41 15.3 101970 47
2010-09-10 06:27:12 51°13.694 2°55.739 2.5 27 15.3 101970 46
2010-09-10 06:27:17 51°13.694 2°55.737 2.9 33 15.3 101970 46
2010-09-10 06:27:22 51°13.694 2°55.736 2.7 23 15.3 101970 46
2010-09-10 06:27:26 51°13.695 2°55.736 2.3 31 15.3 101970 46
2010-09-10 06:27:32 51°13.695 2°55.737 2.1 23 15.3 101970 46
2010-09-10 06:27:37 51°13.696 2°55.738 2.4 34 15.3 101970 46
2010-09-10 06:27:42 51°13.698 2°55.739 1.9 23 15.3 101960 46
2010-09-10 06:27:47 51°13.699 2°55.741 0.3 41 15.3 101960 46
2010-09-10 06:27:51 51°13.701 2°55.742 2.7 22 15.3 101970 46
2010-09-10 06:27:56 51°13.703 2°55.744 1.7 39 15.3 101970 46
2010-09-10 06:28:01 51°13.705 2°55.746 1.6 21 15.3 101970 46
2010-09-10 06:28:07 51°13.708 2°55.748 0.6 32 15.3 101970 46
2010-09-10 06:28:11 51°13.71 2°55.75 1.7 21 15.4 101970 49
2010-09-10 06:28:16 51°13.711 2°55.751 1.2 34 15.4 101970 49
2010-09-10 06:28:21 51°13.712 2°55.752 1.5 23 15.4 101970 47
2010-09-10 06:28:26 51°13.712 2°55.752 1.7 35 15.4 101970 47
2010-09-10 06:28:31 51°13.712 2°55.752 2.8 30 15.4 101970 47
2010-09-10 06:28:35 51°13.711 2°55.753 2.3 35 15.4 101970 47
2010-09-10 06:28:41 51°13.71 2°55.753 3.2 29 15.4 101970 46
2010-09-10 06:28:46 51°13.708 2°55.754 4 33 15.4 101970 46
2010-09-10 06:28:51 51°13.706 2°55.754 3.6 27 15.4 101970 46
2010-09-10 06:28:57 51°13.703 2°55.754 3.8 34 15.4 101970 46
2010-09-10 06:29:03 51°13.7 2°55.753 4.1 23 15.3 101980 45
2010-09-10 06:29:08 51°13.699 2°55.754 4.3 34 15.3 101980 45
2010-09-10 06:29:13 51°13.699 2°55.754 3.2 23 15.3 101980 47
2010-09-10 06:29:18 51°13.701 2°55.755 1.8 36 15.3 101980 47
2010-09-10 06:29:23 51°13.704 2°55.755 0.7 27 15.4 101980 46
2010-09-10 06:29:28 51°13.708 2°55.755 0.4 262 15.4 101980 46
2010-09-10 06:29:32 51°13.711 2°55.755 0.8 261 15.3 101970 49
2010-09-10 06:29:38 51°13.717 2°55.752 2 248 15.3 101970 49
2010-09-10 06:29:43 51°13.722 2°55.749 1.6 23 15.4 101970 49
2010-09-10 06:29:48 51°13.728 2°55.744 1.2 250 15.4 101970 49
2010-09-10 06:29:52 51°13.732 2°55.74 1 21 15.4 101970 47
2010-09-10 06:29:57 51°13.738 2°55.734 1.9 35 15.4 101970 47
2010-09-10 06:30:02 51°13.744 2°55.728 2.3 30 15.4 101970 46
2010-09-10 06:30:07 51°13.75 2°55.722 2.8 33 15.4 101970 46
2010-09-10 06:30:12 51°13.757 2°55.715 3.7 26 15.4 101970 49
2010-09-10 06:30:16 51°13.762 2°55.709 3.8 36 15.4 101970 49
2010-09-10 06:30:21 51°13.768 2°55.702 3.9 23 15.4 101960 46
2010-09-10 06:30:26 51°13.775 2°55.694 3.8 36 15.4 101960 46
2010-09-10 06:30:31 51°13.782 2°55.686 3.5 27 15.4 101970 47
2010-09-10 06:30:36 51°13.788 2°55.678 4 41 15.4 101970 47
2010-09-10 06:30:40 51°13.793 2°55.672 3.8 28 15.4 101970 46
2010-09-10 06:30:45 51°13.8 2°55.664 3.5 32 15.4 101970 46
2010-09-10 06:30:50 51°13.806 2°55.656 4.5 21 15.4 101970 46
2010-09-10 06:30:55 51°13.813 2°55.648 3.7 243 15.4 101970 46
2010-09-10 06:31:00 51°13.82 2°55.641 3.6 22 15.4 101970 49
2010-09-10 06:31:04 51°13.826 2°55.635 2.5 31 15.4 101970 49
2010-09-10 06:31:09 51°13.833 2°55.628 2.6 27 15.4 101970 46
2010-09-10 06:31:15 51°13.842 2°55.621 3.3 235 15.4 101970 46
2010-09-10 06:31:20 51°13.849 2°55.615 3.2 29 15.4 101970 47
2010-09-10 06:31:24 51°13.855 2°55.609 2 40 15.4 101970 47
2010-09-10 06:31:29 51°13.863 2°55.603 1.9 21 15.4 101980 49
2010-09-10 06:31:34 51°13.871 2°55.597 4 35 15.4 101980 49
2010-09-10 06:31:39 51°13.88 2°55.59 3.8 28 15.4 101970 45
2010-09-10 06:31:44 51°13.89 2°55.583 3.8 317 15.4 101970 45
2010-09-10 06:31:49 51°13.9 2°55.577 4.1 318 15.4 101970 49
2010-09-10 06:31:54 51°13.91 2°55.569 3.4 318 15.4 101970 49
2010-09-10 06:31:59 51°13.921 2°55.562 3.8 21 15.4 101970 49
2010-09-10 06:32:04 51°13.932 2°55.554 3.6 315 15.4 101970 49
2010-09-10 06:32:09 51°13.943 2°55.546 3 323 15.4 101970 48
2010-09-10 06:32:14 51°13.954 2°55.537 4.2 32 15.4 101970 48
2010-09-10 06:32:19 51°13.965 2°55.53 4.5 22 15.4 101970 49
2010-09-10 06:32:24 51°13.977 2°55.521 3.2 34 15.4 101970 49
2010-09-10 06:32:29 51°13.989 2°55.512 3 29 15.4 101970 46
2010-09-10 06:32:34 51°14.001 2°55.503 4.4 317 15.4 101970 46
2010-09-10 06:32:39 51°14.014 2°55.494 5 22 15.4 101970 48
2010-09-10 06:32:44 51°14.026 2°55.485 3.1 324 15.4 101970 48
2010-09-10 06:32:49 51°14.038 2°55.475 3.8 344 15.4 101970 46
2010-09-10 06:32:54 51°14.051 2°55.466 3.3 321 15.4 101970 46
2010-09-10 06:32:59 51°14.063 2°55.456 3.1 317 15.4 101970 49
2010-09-10 06:33:04 51°14.076 2°55.446 2 34 15.4 101970 49
2010-09-10 06:33:09 51°14.088 2°55.436 1.9 29 15.4 101970 47
2010-09-10 06:33:14 51°14.101 2°55.426 4.1 324 15.4 101970 47
2010-09-10 06:33:19 51°14.114 2°55.416 3.8 23 15.4 101970 47
2010-09-10 06:33:24 51°14.127 2°55.406 3.4 320 15.4 101970 47
2010-09-10 06:33:29 51°14.14 2°55.395 3.1 325 15.4 101960 48
2010-09-10 06:33:34 51°14.153 2°55.385 4.5 325 15.4 101960 48
2010-09-10 06:33:39 51°14.166 2°55.374 4.9 328 15.4 101970 46
2010-09-10 06:33:44 51°14.18 2°55.363 5.9 318 15.4 101970 46
2010-09-10 06:33:49 51°14.193 2°55.352 4.9 22 15.5 101970 47
2010-09-10 06:33:55 51°14.209 2°55.338 7.5 31 15.5 101970 47
2010-09-10 06:34:00 51°14.222 2°55.327 6 26 15.5 101960 49
2010-09-10 06:34:04 51°14.232 2°55.318 6.6 239 15.5 101960 49
2010-09-10 06:34:09 51°14.246 2°55.307 6.5 26 15.5 101960 46
2010-09-10 06:34:14 51°14.259 2°55.295 7.1 238 15.5 101960 46
2010-09-10 06:34:20 51°14.275 2°55.28 6.6 28 15.5 101960 45
2010-09-10 06:34:24 51°14.285 2°55.271 7.7 32 15.5 101960 45
2010-09-10 06:34:29 51°14.298 2°55.26 8 26 15.5 101960 47
2010-09-10 06:34:34 51°14.312 2°55.247 6.7 240 15.5 101960 47
2010-09-10 06:34:39 51°14.325 2°55.236 7.3 21 15.5 101960 47
2010-09-10 06:34:44 51°14.338 2°55.223 6.4 32 15.5 101960 47
2010-09-10 06:34:49 51°14.352 2°55.211 6.3 21 15.5 101960 48
2010-09-10 06:34:54 51°14.366 2°55.2 6.7 237 15.5 101960 48
2010-09-10 06:34:59 51°14.379 2°55.187 7.1 22 15.5 101960 48
2010-09-10 06:35:04 51°14.394 2°55.175 7.8 241 15.5 101960 48
2010-09-10 06:35:09 51°14.408 2°55.161 7.6 23 15.5 101960 48
2010-09-10 06:35:14 51°14.421 2°55.148 8.6 240 15.5 101960 48
2010-09-10 06:35:19 51°14.435 2°55.134 8.4 19 15.5 101960 47
2010-09-10 06:35:24 51°14.448 2°55.12 7.5 239 15.5 101960 47
2010-09-10 06:35:29 51°14.462 2°55.106 8.1 25 15.5 101950 47
2010-09-10 06:35:34 51°14.476 2°55.091 6.1 240 15.5 101950 47
2010-09-10 06:35:39 51°14.49 2°55.078 6.7 21 15.6 101960 48
2010-09-10 06:35:44 51°14.505 2°55.063 7.7 239 15.6 101960 48
2010-09-10 06:35:49 51°14.519 2°55.05 7.5 24 15.6 101950 47
2010-09-10 06:35:54 51°14.534 2°55.034 8.4 236 15.6 101950 47
2010-09-10 06:35:59 51°14.547 2°55.016 7.8 27 15.6 101950 48
2010-09-10 06:36:04 51°14.559 2°54.996 9.4 240 15.6 101950 48
2010-09-10 06:36:09 51°14.572 2°54.976 10.1 22 15.6 101950 48
2010-09-10 06:36:14 51°14.586 2°54.957 9.1 241 15.6 101950 48
2010-09-10 06:36:19 51°14.599 2°54.937 8.6 241 15.6 101950 47
2010-09-10 06:36:24 51°14.613 2°54.919 8.6 244 15.6 101950 47
2010-09-10 06:36:29 51°14.627 2°54.9 10.2 27 15.6 101950 47
2010-09-10 06:36:34 51°14.64 2°54.88 9.1 235 15.6 101950 47
2010-09-10 06:36:39 51°14.652 2°54.857 9.8 25 15.7 101950 47
2010-09-10 06:36:44 51°14.662 2°54.833 10.2 37 15.7 101950 47
2010-09-10 06:36:49 51°14.672 2°54.808 11.3 28 15.7 101950 47
2010-09-10 06:36:54 51°14.68 2°54.781 11.6 35 15.7 101950 47
2010-09-10 06:36:59 51°14.687 2°54.753 11.1 21 15.7 101950 46
2010-09-10 06:37:04 51°14.694 2°54.726 11.4 37 15.7 101950 46
2010-09-10 06:37:08 51°14.698 2°54.703 11.2 28 15.7 101940 48
2010-09-10 06:37:14 51°14.705 2°54.668 11.7 35 15.7 101940 48
2010-09-10 06:37:19 51°14.711 2°54.64 11.6 24 15.7 101940 48
2010-09-10 06:37:24 51°14.716 2°54.611 12 32 15.7 101940 48
2010-09-10 06:37:29 51°14.721 2°54.582 11.4 25 15.7 101940 47
2010-09-10 06:37:34 51°14.727 2°54.553 11.6 32 15.7 101940 47
2010-09-10 06:37:39 51°14.732 2°54.524 10.9 21 15.8 101940 47
2010-09-10 06:37:44 51°14.737 2°54.495 10.8 34 15.8 101940 47
2010-09-10 06:37:49 51°14.742 2°54.466 12.3 20 15.8 101940 47
2010-09-10 06:37:54 51°14.748 2°54.438 11.8 315 15.8 101940 47
2010-09-10 06:37:59 51°14.752 2°54.408 13.2 315 15.8 101940 47
2010-09-10 06:38:04 51°14.757 2°54.379 13.3 33 15.8 101940 47
2010-09-10 06:38:09 51°14.761 2°54.35 12.9 23 15.9 101940 47
2010-09-10 06:38:14 51°14.766 2°54.32 12.4 34 15.9 101940 47
2010-09-10 06:38:19 51°14.77 2°54.29 12.9 21 15.9 101930 47
2010-09-10 06:38:25 51°14.775 2°54.255 12.4 31 15.9 101930 47
2010-09-10 06:38:29 51°14.779 2°54.231 12 24 15.9 101930 48
2010-09-10 06:38:34 51°14.783 2°54.202 11.8 36 15.9 101930 48
2010-09-10 06:38:39 51°14.788 2°54.172 12.1 23 15.9 101930 48
2010-09-10 06:38:44 51°14.793 2°54.142 13.3 31 15.9 101930 48
2010-09-10 06:38:49 51°14.798 2°54.113 13.6 19 15.9 101930 48
2010-09-10 06:38:53 51°14.802 2°54.09 13.8 39 15.9 101930 48
2010-09-10 06:38:59 51°14.808 2°54.055 12.3 28 15.9 101930 48
2010-09-10 06:39:04 51°14.812 2°54.025 13.2 36 15.9 101930 48
2010-09-10 06:39:09 51°14.816 2°53.996 12.9 28 15.9 101930 47
2010-09-10 06:39:14 51°14.819 2°53.966 12.7 315 15.9 101930 47
2010-09-10 06:39:19 51°14.822 2°53.936 13.4 316 15.9 101930 48
2010-09-10 06:39:24 51°14.825 2°53.906 12 316 15.9 101930 48
2010-09-10 06:39:29 51°14.828 2°53.876 12.2 317 16 101930 47
2010-09-10 06:39:33 51°14.83 2°53.852 13.8 316 16 101930 47
2010-09-10 06:39:39 51°14.833 2°53.816 13.6 317 16 101930 46
2010-09-10 06:39:44 51°14.835 2°53.786 13.2 316 16 101930 46
2010-09-10 06:39:49 51°14.838 2°53.755 13.7 316 16 101930 48
2010-09-10 06:39:54 51°14.841 2°53.725 13.2 315 16 101930 48
2010-09-10 06:39:59 51°14.844 2°53.695 13.2 315 16 101940 48
2010-09-10 06:40:04 51°14.848 2°53.665 13.8 37 16 101940 48
2010-09-10 06:40:09 51°14.851 2°53.635 13 24 16 101930 48
2010-09-10 06:40:13 51°14.854 2°53.611 12.2 32 16 101930 48
2010-09-10 06:40:19 51°14.859 2°53.575 12.7 20 16 101930 48
2010-09-10 06:40:24 51°14.862 2°53.545 11.7 34 16 101930 48
2010-09-10 06:40:29 51°14.866 2°53.515 12.2 315 16 101930 47
2010-09-10 06:40:34 51°14.871 2°53.485 13.1 34 16 101930 47
2010-09-10 06:40:39 51°14.875 2°53.455 13.9 23 16.1 101940 48
2010-09-10 06:40:44 51°14.879 2°53.425 11.6 34 16.1 101940 48
2010-09-10 06:40:49 51°14.883 2°53.395 11 27 16 101930 48
2010-09-10 06:40:53 51°14.886 2°53.37 11.5 316 16 101930 48
2010-09-10 06:40:59 51°14.891 2°53.334 11.6 27 16.1 101940 48
2010-09-10 06:41:04 51°14.894 2°53.304 12.9 35 16.1 101940 48
2010-09-10 06:41:09 51°14.898 2°53.274 13.1 23 16.1 101930 47
2010-09-10 06:41:14 51°14.901 2°53.244 12.2 35 16.1 101930 47
2010-09-10 06:41:19 51°14.904 2°53.213 11.4 25 16.1 101940 48
2010-09-10 06:41:24 51°14.907 2°53.183 13.2 315 16.1 101940 48
2010-09-10 06:41:29 51°14.91 2°53.153 12.7 315 16.1 101930 48
2010-09-10 06:41:33 51°14.912 2°53.128 13.4 40 16.1 101930 48
2010-09-10 06:41:39 51°14.916 2°53.092 12 24 16.1 101930 48
2010-09-10 06:41:44 51°14.92 2°53.062 12.9 35 16.1 101930 48
2010-09-10 06:41:49 51°14.923 2°53.031 12.4 21 16.1 101940 48
2010-09-10 06:41:54 51°14.925 2°53 11.3 317 16.1 101940 48
2010-09-10 06:41:59 51°14.927 2°52.97 11.8 318 16.1 101930 48
2010-09-10 06:42:04 51°14.928 2°52.939 12.1 317 16.1 101930 48
2010-09-10 06:42:09 51°14.929 2°52.908 12.4 316 16.1 101940 48
2010-09-10 06:42:13 51°14.93 2°52.884 12.4 317 16.1 101940 48
2010-09-10 06:42:19 51°14.93 2°52.847 12.1 319 16.1 101930 46
2010-09-10 06:42:24 51°14.931 2°52.816 13 317 16.1 101930 46
2010-09-10 06:42:29 51°14.931 2°52.785 12.1 318 16.1 101940 47
2010-09-10 06:42:34 51°14.931 2°52.754 11.9 318 16.1 101940 47
2010-09-10 06:42:39 51°14.931 2°52.723 12.3 319 16.1 101930 48
2010-09-10 06:42:44 51°14.931 2°52.692 12.3 317 16.1 101930 48
2010-09-10 06:42:49 51°14.931 2°52.66 11.9 318 16.1 101930 48
2010-09-10 06:42:53 51°14.932 2°52.636 11.8 318 16.1 101930 48
2010-09-10 06:42:59 51°14.932 2°52.598 11.4 319 16.2 101930 48
2010-09-10 06:43:04 51°14.933 2°52.567 12.3 33 16.2 101930 48
2010-09-10 06:43:09 51°14.934 2°52.537 13.4 316 16.2 101930 48
2010-09-10 06:43:14 51°14.935 2°52.506 12.5 318 16.2 101930 48
2010-09-10 06:43:19 51°14.936 2°52.475 12 318 16.2 101930 48
2010-09-10 06:43:24 51°14.936 2°52.444 12.7 317 16.2 101930 48
2010-09-10 06:43:29 51°14.937 2°52.413 12.4 318 16.2 101930 47
2010-09-10 06:43:33 51°14.938 2°52.388 11.2 320 16.2 101930 47
2010-09-10 06:43:39 51°14.939 2°52.351 11.6 319 16.2 101930 48
2010-09-10 06:43:44 51°14.939 2°52.32 11.8 321 16.2 101930 48
2010-09-10 06:43:49 51°14.94 2°52.289 11.6 319 16.2 101930 47
2010-09-10 06:43:54 51°14.94 2°52.258 12.9 320 16.2 101930 47
2010-09-10 06:43:59 51°14.941 2°52.227 13.3 319 16.3 101930 47
2010-09-10 06:44:04 51°14.942 2°52.196 13.6 319 16.3 101930 47
2010-09-10 06:44:09 51°14.943 2°52.165 13 319 16.3 101940 48
2010-09-10 06:44:14 51°14.943 2°52.134 13.6 321 16.3 101940 48
2010-09-10 06:44:19 51°14.944 2°52.104 14.5 320 16.3 101940 48
2010-09-10 06:44:24 51°14.945 2°52.073 12.3 321 16.3 101940 48
2010-09-10 06:44:29 51°14.946 2°52.042 12.7 319 16.3 101930 47
2010-09-10 06:44:34 51°14.946 2°52.011 13.3 318 16.3 101930 47
2010-09-10 06:44:39 51°14.947 2°51.98 12.4 318 16.3 101930 47
2010-09-10 06:44:44 51°14.948 2°51.949 12.9 319 16.3 101930 47
2010-09-10 06:44:49 51°14.949 2°51.918 14.2 318 16.3 101930 47
2010-09-10 06:44:54 51°14.95 2°51.887 14.6 317 16.3 101930 47
2010-09-10 06:44:59 51°14.95 2°51.857 13.2 318 16.3 101930 46
2010-09-10 06:45:04 51°14.951 2°51.825 13.4 318 16.3 101930 46
2010-09-10 06:45:09 51°14.952 2°51.795 12.9 319 16.3 101930 48
2010-09-10 06:45:14 51°14.953 2°51.764 12.8 318 16.3 101930 48
2010-09-10 06:45:19 51°14.954 2°51.733 12.4 319 16.3 101940 48
2010-09-10 06:45:24 51°14.955 2°51.702 13.3 318 16.3 101940 48
2010-09-10 06:45:29 51°14.956 2°51.671 11.3 321 16.3 101930 48
2010-09-10 06:45:34 51°14.957 2°51.64 13.2 319 16.3 101930 48
2010-09-10 06:45:39 51°14.958 2°51.609 12.5 319 16.3 101930 47
2010-09-10 06:45:44 51°14.959 2°51.578 12.3 319 16.3 101930 47
2010-09-10 06:45:49 51°14.96 2°51.546 12.2 319 16.3 101930 47
2010-09-10 06:45:54 51°14.961 2°51.515 12.2 319 16.3 101930 47
2010-09-10 06:45:59 51°14.961 2°51.485 12.8 318 16.3 101940 47
2010-09-10 06:46:05 51°14.963 2°51.447 12.6 319 16.3 101940 47
2010-09-10 06:46:09 51°14.964 2°51.422 11.9 321 16.3 101930 47
2010-09-10 06:46:14 51°14.964 2°51.392 12.2 319 16.3 101930 47
2010-09-10 06:46:19 51°14.965 2°51.361 14 319 16.4 101930 47
2010-09-10 06:46:24 51°14.966 2°51.33 13.1 319 16.4 101930 47
2010-09-10 06:46:29 51°14.967 2°51.299 13.2 319 16.3 101920 48
2010-09-10 06:46:34 51°14.968 2°51.268 12.4 316 16.3 101920 48
2010-09-10 06:46:39 51°14.969 2°51.238 11.8 316 16.3 101910 47
2010-09-10 06:46:44 51°14.971 2°51.207 12.1 317 16.3 101910 47
2010-09-10 06:46:49 51°14.974 2°51.177 13 21 16.3 101910 48
2010-09-10 06:46:54 51°14.978 2°51.147 12 39 16.3 101910 48
2010-09-10 06:46:59 51°14.982 2°51.117 11.4 26 16.3 101910 48
2010-09-10 06:47:04 51°14.988 2°51.089 11.7 36 16.3 101910 48
2010-09-10 06:47:09 51°14.996 2°51.062 10.7 23 16.3 101930 48
2010-09-10 06:47:14 51°15.005 2°51.035 12.4 37 16.3 101930 48
2010-09-10 06:47:19 51°15.012 2°51.008 11.3 23 16.3 101930 48
2010-09-10 06:47:24 51°15.022 2°50.982 12.2 35 16.3 101930 48
2010-09-10 06:47:29 51°15.03 2°50.956 10.4 25 16.3 101940 48
2010-09-10 06:47:34 51°15.041 2°50.93 12.3 234 16.3 101940 48
2010-09-10 06:47:39 51°15.051 2°50.905 11.7 23 16.3 101930 47
2010-09-10 06:47:44 51°15.061 2°50.88 10.8 33 16.3 101930 47
2010-09-10 06:47:49 51°15.072 2°50.855 11.1 22 16.3 101940 47
2010-09-10 06:47:54 51°15.082 2°50.831 10.8 37 16.3 101940 47
2010-09-10 06:47:59 51°15.093 2°50.807 10.3 24 16.3 101940 47
2010-09-10 06:48:04 51°15.105 2°50.783 11.6 36 16.3 101940 47
2010-09-10 06:48:09 51°15.116 2°50.758 12.1 28 16.3 101930 48
2010-09-10 06:48:14 51°15.128 2°50.735 12.4 33 16.3 101930 48
2010-09-10 06:48:19 51°15.139 2°50.711 11.2 24 16.3 101930 48
2010-09-10 06:48:24 51°15.15 2°50.686 11.7 33 16.3 101930 48
2010-09-10 06:48:29 51°15.162 2°50.663 11.9 24 16.3 101940 48
2010-09-10 06:48:34 51°15.173 2°50.639 11.7 233 16.3 101940 48
2010-09-10 06:48:39 51°15.184 2°50.615 10.7 25 16.3 101940 48
2010-09-10 06:48:44 51°15.196 2°50.591 12.2 35 16.3 101940 48
2010-09-10 06:48:49 51°15.208 2°50.567 11 26 16.4 101940 47
2010-09-10 06:48:54 51°15.219 2°50.544 12 236 16.4 101940 47
2010-09-10 06:48:59 51°15.231 2°50.52 10.4 23 16.4 101940 48
2010-09-10 06:49:04 51°15.242 2°50.496 10.8 302 16.4 101940 48
2010-09-10 06:49:09 51°15.254 2°50.472 10.8 27 16.4 101930 48
2010-09-10 06:49:14 51°15.266 2°50.448 10.9 36 16.4 101930 48
2010-09-10 06:49:19 51°15.277 2°50.425 11.2 21 16.4 101940 47
2010-09-10 06:49:24 51°15.289 2°50.401 9.8 232 16.4 101940 47
2010-09-10 06:49:29 51°15.302 2°50.378 11 28 16.4 101940 48
2010-09-10 06:49:34 51°15.314 2°50.355 10.6 35 16.4 101940 48
2010-09-10 06:49:39 51°15.327 2°50.333 11 26 16.4 101940 47
2010-09-10 06:49:44 51°15.339 2°50.311 10.6 234 16.4 101940 47
2010-09-10 06:49:49 51°15.352 2°50.288 9.8 26 16.4 101930 47
2010-09-10 06:49:54 51°15.364 2°50.267 11.1 35 16.4 101930 47
2010-09-10 06:49:59 51°15.375 2°50.247 9.2 23 16.4 101940 48
2010-09-10 06:50:04 51°15.386 2°50.228 9.2 238 16.4 101940 48
2010-09-10 06:50:09 51°15.396 2°50.211 9 24 16.4 101940 48
2010-09-10 06:50:14 51°15.406 2°50.194 8.9 240 16.4 101940 48
2010-09-10 06:50:19 51°15.415 2°50.178 9.3 25 16.4 101950 46
2010-09-10 06:50:24 51°15.424 2°50.163 10.3 241 16.4 101950 46
2010-09-10 06:50:29 51°15.432 2°50.149 10.6 22 16.4 101950 47
2010-09-10 06:50:34 51°15.439 2°50.135 9.1 239 16.4 101950 47
2010-09-10 06:50:39 51°15.446 2°50.122 10.4 23 16.4 101950 47
2010-09-10 06:50:45 51°15.453 2°50.107 8.7 238 16.4 101950 47
2010-09-10 06:50:49 51°15.457 2°50.097 8.9 26 16.4 101950 48
2010-09-10 06:50:54 51°15.462 2°50.085 8.8 239 16.4 101950 48
2010-09-10 06:50:59 51°15.465 2°50.074 8.9 27 16.4 101950 49
2010-09-10 06:51:04 51°15.468 2°50.064 9.3 309 16.4 101950 49
2010-09-10 06:51:09 51°15.471 2°50.053 9.1 22 16.4 101950 48
2010-09-10 06:51:14 51°15.473 2°50.045 8.5 32 16.4 101950 48
2010-09-10 06:51:19 51°15.474 2°50.037 7.9 19 16.5 101950 47
2010-09-10 06:51:24 51°15.475 2°50.03 7.7 35 16.5 101950 47
2010-09-10 06:51:29 51°15.476 2°50.023 7.6 21 16.4 101950 47
2010-09-10 06:51:33 51°15.476 2°50.018 7.7 34 16.4 101950 47
2010-09-10 06:51:39 51°15.477 2°50.011 7.2 21 16.5 101950 49
2010-09-10 06:51:44 51°15.477 2°50.007 7.3 37 16.5 101950 49
2010-09-10 06:51:49 51°15.477 2°50.003 7.3 27 16.4 101950 49
2010-09-10 06:51:54 51°15.477 2°50 7.7 233 16.4 101950 49
2010-09-10 06:51:59 51°15.476 2°49.998 7.4 22 16.5 101950 48
2010-09-10 06:52:04 51°15.476 2°49.996 7.2 236 16.5 101950 48
2010-09-10 06:52:09 51°15.476 2°49.995 7.8 23 16.5 101960 47
2010-09-10 06:52:13 51°15.476 2°49.994 6.6 300 16.5 101960 47
2010-09-10 06:52:19 51°15.475 2°49.992 6.5 24 16.5 101950 47
2010-09-10 06:52:25 51°15.475 2°49.991 6.3 242 16.5 101950 47
2010-09-10 06:52:30 51°15.475 2°49.99 7 29 16.5 101950 48
2010-09-10 06:52:36 51°15.475 2°49.988 7.6 308 16.5 101950 48
2010-09-10 06:52:41 51°15.475 2°49.987 7.7 25 16.5 101960 47
2010-09-10 06:52:46 51°15.475 2°49.986 8.3 244 16.5 101960 47
2010-09-10 06:52:51 51°15.474 2°49.985 8.2 24 16.6 101960 47
2010-09-10 06:52:56 51°15.474 2°49.983 6.7 245 16.6 101960 47
2010-09-10 06:53:01 51°15.474 2°49.982 7.5 24 16.5 101950 46
2010-09-10 06:53:06 51°15.474 2°49.981 7.8 307 16.5 101950 46
2010-09-10 06:53:11 51°15.474 2°49.979 7.3 19 16.5 101960 47
2010-09-10 06:53:16 51°15.473 2°49.978 8.4 248 16.5 101960 47
2010-09-10 06:53:21 51°15.473 2°49.977 7.7 26 16.5 101960 49
2010-09-10 06:53:25 51°15.473 2°49.976 7.7 310 16.5 101960 49
2010-09-10 06:53:31 51°15.473 2°49.974 8.3 249 16.5 101960 48
2010-09-10 06:53:36 51°15.473 2°49.973 9 249 16.5 101960 48
2010-09-10 06:53:41 51°15.472 2°49.972 8.6 20 16.6 101960 47
2010-09-10 06:53:45 51°15.472 2°49.971 8 251 16.6 101960 47
2010-09-10 06:53:50 51°15.472 2°49.97 8.4 251 16.6 101960 48
2010-09-10 06:53:56 51°15.471 2°49.968 8 253 16.6 101960 48
2010-09-10 06:54:01 51°15.472 2°49.967 8 251 16.6 101960 48
2010-09-10 06:54:05 51°15.471 2°49.966 8.8 254 16.6 101960 48
2010-09-10 06:54:10 51°15.471 2°49.965 8.1 254 16.6 101970 47
2010-09-10 06:54:15 51°15.471 2°49.963 8.2 307 16.6 101970 47
2010-09-10 06:54:20 51°15.47 2°49.962 7.2 252 16.5 101960 47
2010-09-10 06:54:25 51°15.47 2°49.96 7.4 257 16.5 101960 47
2010-09-10 06:54:29 51°15.47 2°49.959 8.2 255 16.5 101960 48
2010-09-10 06:54:34 51°15.469 2°49.958 7.2 302 16.5 101960 48
2010-09-10 06:54:39 51°15.469 2°49.957 7.7 255 16.5 101960 48
2010-09-10 06:54:44 51°15.469 2°49.955 6.6 259 16.5 101960 48
2010-09-10 06:54:49 51°15.469 2°49.953 6.7 261 16.5 101960 47
2010-09-10 06:54:54 51°15.468 2°49.952 6.9 261 16.5 101960 47
2010-09-10 06:54:59 51°15.468 2°49.951 5.2 262 16.5 101970 47
2010-09-10 06:55:04 51°15.468 2°49.949 6.5 262 16.5 101970 47
2010-09-10 06:55:09 51°15.468 2°49.947 5.1 263 16.6 101970 47
2010-09-10 06:55:14 51°15.467 2°49.946 4.5 264 16.6 101970 47
2010-09-10 06:55:19 51°15.467 2°49.945 5.1 265 16.5 101960 47
2010-09-10 06:55:24 51°15.467 2°49.943 5.4 264 16.5 101960 47
2010-09-10 06:55:29 51°15.466 2°49.941 5.5 263 16.6 101970 49
2010-09-10 06:55:33 51°15.466 2°49.94 3.3 264 16.6 101970 49
2010-09-10 06:55:39 51°15.465 2°49.938 4.9 263 16.6 101970 46
2010-09-10 06:55:44 51°15.465 2°49.937 4.7 263 16.6 101970 46
2010-09-10 06:55:49 51°15.465 2°49.936 5.1 264 16.6 101970 47
2010-09-10 06:55:54 51°15.465 2°49.935 4.2 264 16.6 101970 47
2010-09-10 06:55:59 51°15.465 2°49.933 4.8 265 16.6 101970 47
2010-09-10 06:56:04 51°15.465 2°49.932 5.6 268 16.6 101970 47
2010-09-10 06:56:09 51°15.464 2°49.93 5.7 264 16.6 101970 47
2010-09-10 06:56:13 51°15.464 2°49.929 5.8 267 16.6 101970 47
2010-09-10 06:56:19 51°15.464 2°49.928 5.8 266 16.6 101970 48
2010-09-10 06:56:24 51°15.463 2°49.926 5.9 269 16.6 101970 48
2010-09-10 06:56:29 51°15.463 2°49.924 5.8 269 16.6 101960 48
2010-09-10 06:56:34 51°15.463 2°49.922 6.3 270 16.6 101960 48
2010-09-10 06:56:39 51°15.462 2°49.921 5.3 265 16.6 101980 47
2010-09-10 06:56:44 51°15.462 2°49.92 6.7 269 16.6 101980 47
2010-09-10 06:56:49 51°15.462 2°49.918 5.2 268 16.6 101970 48
2010-09-10 06:56:54 51°15.462 2°49.916 6.7 64 16.6 101970 48
2010-09-10 06:56:59 51°15.461 2°49.915 6.4 270 16.6 101970 47
2010-09-10 06:57:04 51°15.461 2°49.913 7.5 269 16.6 101970 47
2010-09-10 06:57:09 51°15.461 2°49.912 6.6 268 16.5 101980 48
2010-09-10 06:57:14 51°15.46 2°49.91 6.3 270 16.5 101980 48
2010-09-10 06:57:19 51°15.46 2°49.909 6.7 269 16.6 101970 46
2010-09-10 06:57:24 51°15.46 2°49.908 6.7 270 16.6 101970 46
2010-09-10 06:57:29 51°15.459 2°49.906 7.2 270 16.5 101970 47
2010-09-10 06:57:34 51°15.459 2°49.905 5.8 269 16.5 101970 47
2010-09-10 06:57:39 51°15.459 2°49.903 6 269 16.5 101970 48
2010-09-10 06:57:44 51°15.459 2°49.901 6 65 16.5 101970 48
2010-09-10 06:57:49 51°15.459 2°49.9 5.8 269 16.5 101970 48
2010-09-10 06:57:54 51°15.459 2°49.898 5.9 270 16.5 101970 48
2010-09-10 06:57:59 51°15.458 2°49.896 5.1 269 16.5 101970 49
2010-09-10 06:58:05 51°15.458 2°49.895 5.5 268 16.5 101970 49
2010-09-10 06:58:10 51°15.458 2°49.893 5.8 268 16.5 101970 48
2010-09-10 06:58:15 51°15.457 2°49.892 5.7 265 16.5 101970 48
2010-09-10 06:58:20 51°15.457 2°49.891 5.9 269 16.5 101970 46
2010-09-10 06:58:25 51°15.457 2°49.89 6.3 44 16.5 101970 46
2010-09-10 06:58:29 51°15.456 2°49.888 6.2 17 16.6 101970 47
2010-09-10 06:58:34 51°15.456 2°49.887 6.2 270 16.6 101970 47
2010-09-10 06:58:39 51°15.456 2°49.885 6.5 269 16.6 101970 49
2010-09-10 06:58:44 51°15.456 2°49.884 6.1 267 16.6 101970 49
2010-09-10 06:58:49 51°15.455 2°49.883 6.1 270 16.6 101970 48
2010-09-10 06:58:54 51°15.455 2°49.881 6.8 268 16.6 101970 48
2010-09-10 06:58:59 51°15.455 2°49.88 5.6 270 16.6 101970 47
2010-09-10 06:59:04 51°15.455 2°49.879 6.1 269 16.6 101970 47
2010-09-10 06:59:09 51°15.454 2°49.877 6.6 269 16.6 101970 47
2010-09-10 06:59:13 51°15.454 2°49.876 5.4 302 16.6 101970 47
2010-09-10 06:59:19 51°15.454 2°49.874 5.5 264 16.6 101980 48
2010-09-10 06:59:24 51°15.454 2°49.873 5.7 269 16.6 101980 48
2010-09-10 06:59:29 51°15.453 2°49.872 5.9 269 16.6 101970 49
2010-09-10 06:59:34 51°15.453 2°49.87 6.4 301 16.6 101970 49
2010-09-10 06:59:38 51°15.453 2°49.869 5.8 269 16.6 101960 47
2010-09-10 06:59:44 51°15.453 2°49.867 5.8 270 16.6 101960 47
2010-09-10 06:59:49 51°15.452 2°49.866 5.3 270 16.6 101970 47
2010-09-10 06:59:53 51°15.452 2°49.865 7.1 39 16.6 101970 47
2010-09-10 06:59:58 51°15.452 2°49.863 6.8 24 16.6 101960 47
2010-09-10 07:00:04 51°15.451 2°49.862 6.7 54 16.6 101960 47
2010-09-10 07:00:09 51°15.451 2°49.86 6.1 29 16.6 101960 47
2010-09-10 07:00:13 51°15.451 2°49.86 6.6 40 16.6 101960 47
2010-09-10 07:00:19 51°15.45 2°49.857 6.9 269 16.7 101970 48
2010-09-10 07:00:23 51°15.45 2°49.857 5.5 269 16.7 101970 48
2010-09-10 07:00:30 51°15.451 2°49.854 5.7 267 16.6 101970 49
2010-09-10 07:00:34 51°15.452 2°49.853 5.7 266 16.6 101970 49
2010-09-10 07:00:39 51°15.453 2°49.85 6.2 266 16.6 101970 48
2010-09-10 07:00:44 51°15.454 2°49.848 5.1 307 16.6 101970 48
2010-09-10 07:00:49 51°15.456 2°49.844 6.1 258 16.6 101970 47
2010-09-10 07:00:54 51°15.459 2°49.84 6.7 252 16.6 101970 47
2010-09-10 07:00:59 51°15.461 2°49.834 6.5 250 16.6 101960 48
2010-09-10 07:01:04 51°15.464 2°49.827 6.8 244 16.6 101960 48
2010-09-10 07:01:09 51°15.466 2°49.82 6.6 24 16.6 101970 48
2010-09-10 07:01:14 51°15.468 2°49.811 8.9 236 16.6 101970 48
2010-09-10 07:01:19 51°15.47 2°49.801 9.7 23 16.6 101960 47
2010-09-10 07:01:24 51°15.471 2°49.791 9.8 34 16.6 101960 47
2010-09-10 07:01:29 51°15.472 2°49.78 8.7 21 16.6 101960 47
2010-09-10 07:01:34 51°15.472 2°49.769 8.8 317 16.6 101960 47
2010-09-10 07:01:38 51°15.472 2°49.76 9.5 319 16.6 101950 48
2010-09-10 07:01:44 51°15.47 2°49.746 9.6 324 16.6 101950 48
2010-09-10 07:01:49 51°15.468 2°49.734 9.2 323 16.6 101940 47
2010-09-10 07:01:54 51°15.465 2°49.721 9.4 325 16.6 101940 47
2010-09-10 07:01:59 51°15.461 2°49.708 9 326 16.6 101940 47
2010-09-10 07:02:04 51°15.458 2°49.695 9.4 304 16.6 101940 47
2010-09-10 07:02:09 51°15.454 2°49.682 8.7 327 16.6 101940 48
2010-09-10 07:02:14 51°15.449 2°49.668 9.7 331 16.6 101940 48
2010-09-10 07:02:19 51°15.444 2°49.655 10.1 332 16.6 101940 47
2010-09-10 07:02:24 51°15.439 2°49.641 9.8 331 16.6 101940 47
2010-09-10 07:02:29 51°15.433 2°49.627 9.5 329 16.6 101940 48
2010-09-10 07:02:34 51°15.427 2°49.613 11 332 16.6 101940 48
2010-09-10 07:02:38 51°15.421 2°49.603 11.2 332 16.6 101940 47
2010-09-10 07:02:44 51°15.413 2°49.586 9.9 335 16.6 101940 47
2010-09-10 07:02:49 51°15.405 2°49.573 9.4 335 16.6 101950 48
2010-09-10 07:02:54 51°15.396 2°49.56 10.5 333 16.6 101950 48
2010-09-10 07:02:58 51°15.39 2°49.549 11.5 333 16.6 101950 48
2010-09-10 07:03:04 51°15.38 2°49.532 10.9 332 16.6 101950 48
2010-09-10 07:03:09 51°15.372 2°49.518 10 332 16.6 101940 48
2010-09-10 07:03:14 51°15.364 2°49.503 10.4 333 16.6 101940 48
2010-09-10 07:03:19 51°15.356 2°49.489 11.7 333 16.6 101950 48
2010-09-10 07:03:24 51°15.348 2°49.473 11.3 331 16.6 101950 48
2010-09-10 07:03:29 51°15.34 2°49.457 10.9 332 16.6 101950 48
2010-09-10 07:03:34 51°15.332 2°49.441 10.2 332 16.6 101950 48
2010-09-10 07:03:38 51°15.326 2°49.428 10.1 330 16.6 101950 46
2010-09-10 07:03:44 51°15.317 2°49.407 10.5 330 16.6 101950 46
2010-09-10 07:03:49 51°15.309 2°49.39 11.3 331 16.6 101950 48
2010-09-10 07:03:54 51°15.302 2°49.372 11.3 328 16.6 101950 48
2010-09-10 07:03:58 51°15.297 2°49.358 11.5 329 16.6 101950 48
2010-09-10 07:04:04 51°15.288 2°49.337 10.7 333 16.6 101950 48
2010-09-10 07:04:09 51°15.282 2°49.321 10.1 334 16.6 101950 48
2010-09-10 07:04:14 51°15.274 2°49.308 10.7 340 16.6 101950 48
2010-09-10 07:04:19 51°15.267 2°49.297 9.4 340 16.6 101950 47
2010-09-10 07:04:24 51°15.259 2°49.288 9.5 344 16.6 101950 47
2010-09-10 07:04:29 51°15.251 2°49.281 9.6 348 16.6 101940 47
2010-09-10 07:04:34 51°15.244 2°49.275 9.6 351 16.6 101940 47
2010-09-10 07:04:39 51°15.236 2°49.272 9 352 16.6 101950 47
2010-09-10 07:04:44 51°15.229 2°49.268 8.9 356 16.6 101950 47
2010-09-10 07:04:50 51°15.221 2°49.267 8.8 357 16.6 101950 47
2010-09-10 07:04:54 51°15.216 2°49.267 8 5 16.6 101950 47
2010-09-10 07:04:58 51°15.211 2°49.268 7.5 6 16.6 101940 47
2010-09-10 07:05:04 51°15.204 2°49.269 8.8 8 16.6 101940 47
2010-09-10 07:05:09 51°15.198 2°49.272 8.4 7 16.6 101940 49
2010-09-10 07:05:14 51°15.193 2°49.275 8.3 9 16.6 101940 49
2010-09-10 07:05:19 51°15.187 2°49.278 9.4 9 16.6 101940 49
2010-09-10 07:05:24 51°15.182 2°49.281 7.4 11 16.6 101940 49
2010-09-10 07:05:29 51°15.176 2°49.285 7.7 12 16.6 101940 48
2010-09-10 07:05:34 51°15.17 2°49.289 8.8 8 16.6 101940 48
2010-09-10 07:05:39 51°15.165 2°49.294 7.4 10 16.6 101940 48
2010-09-10 07:05:44 51°15.16 2°49.299 8.4 14 16.6 101940 48
2010-09-10 07:05:49 51°15.155 2°49.304 7.6 17 16.6 101940 47
2010-09-10 07:05:54 51°15.15 2°49.31 6.7 25 16.6 101940 47
2010-09-10 07:05:58 51°15.148 2°49.314 7 23 16.6 101940 49
2010-09-10 07:06:04 51°15.144 2°49.322 7 28 16.6 101940 49
2010-09-10 07:06:09 51°15.141 2°49.328 6.8 30 16.6 101940 48
2010-09-10 07:06:14 51°15.14 2°49.335 6.3 36 16.6 101940 48
2010-09-10 07:06:18 51°15.138 2°49.34 6.4 37 16.7 101940 47
2010-09-10 07:06:24 51°15.138 2°49.347 5.5 44 16.7 101940 47
2010-09-10 07:06:29 51°15.138 2°49.354 5.7 44 16.6 101950 47
2010-09-10 07:06:34 51°15.139 2°49.36 5.8 39 16.6 101950 47
2010-09-10 07:06:39 51°15.14 2°49.365 5.5 23 16.6 101950 49
2010-09-10 07:06:44 51°15.141 2°49.37 4.1 51 16.6 101950 49
2010-09-10 07:06:49 51°15.143 2°49.375 3.3 23 16.6 101960 46
2010-09-10 07:06:54 51°15.146 2°49.379 2.7 33 16.6 101960 46
2010-09-10 07:06:59 51°15.148 2°49.383 4.6 22 16.6 101960 48
2010-09-10 07:07:04 51°15.152 2°49.386 5.2 51 16.6 101960 48
2010-09-10 07:07:09 51°15.156 2°49.389 5.5 29 16.6 101960 49
2010-09-10 07:07:14 51°15.159 2°49.392 4.9 36 16.6 101960 49
2010-09-10 07:07:19 51°15.164 2°49.395 5.3 30 16.7 101960 47
2010-09-10 07:07:24 51°15.168 2°49.398 5.8 75 16.7 101960 47
2010-09-10 07:07:29 51°15.172 2°49.401 5.5 22 16.7 101970 47
2010-09-10 07:07:34 51°15.177 2°49.404 5.7 33 16.7 101970 47
2010-09-10 07:07:39 51°15.181 2°49.407 5.8 22 16.7 101970 47
2010-09-10 07:07:44 51°15.185 2°49.41 5.3 39 16.7 101970 47
2010-09-10 07:07:49 51°15.189 2°49.413 5 27 16.7 101960 47
2010-09-10 07:07:54 51°15.194 2°49.416 5.3 35 16.7 101960 47
2010-09-10 07:07:58 51°15.197 2°49.419 6 27 16.7 101960 47
2010-09-10 07:08:04 51°15.202 2°49.423 4.1 40 16.7 101960 47
2010-09-10 07:08:09 51°15.206 2°49.427 4.1 27 16.7 101960 46
2010-09-10 07:08:14 51°15.211 2°49.431 4.5 41 16.7 101960 46
2010-09-10 07:08:19 51°15.215 2°49.435 4 23 16.7 101960 49
2010-09-10 07:08:24 51°15.219 2°49.439 4 38 16.7 101960 49
2010-09-10 07:08:29 51°15.222 2°49.443 3.2 26 16.7 101960 47
2010-09-10 07:08:34 51°15.226 2°49.448 3.8 31 16.7 101960 47
2010-09-10 07:08:39 51°15.23 2°49.453 3.6 25 16.7 101960 46
2010-09-10 07:08:44 51°15.233 2°49.458 3.3 58 16.7 101960 46
2010-09-10 07:08:49 51°15.237 2°49.463 2.9 23 16.7 101960 49
2010-09-10 07:08:54 51°15.24 2°49.468 1.7 33 16.7 101960 49
2010-09-10 07:08:59 51°15.243 2°49.474 2.6 22 16.7 101960 45
2010-09-10 07:09:04 51°15.246 2°49.479 2.6 38 16.7 101960 45
2010-09-10 07:09:09 51°15.249 2°49.485 3.8 21 16.7 101960 46
2010-09-10 07:09:14 51°15.253 2°49.49 3.2 34 16.7 101960 46
2010-09-10 07:09:19 51°15.256 2°49.496 2.9 30 16.8 101960 46
2010-09-10 07:09:24 51°15.259 2°49.501 3.3 84 16.8 101960 46
2010-09-10 07:09:29 51°15.262 2°49.507 3.5 23 16.8 101960 49
2010-09-10 07:09:34 51°15.265 2°49.513 2 34 16.8 101960 49
2010-09-10 07:09:39 51°15.268 2°49.518 2.3 24 16.9 101970 49
2010-09-10 07:09:44 51°15.271 2°49.524 1.7 39 16.9 101970 49
2010-09-10 07:09:49 51°15.274 2°49.53 2.1 21 16.9 101960 47
2010-09-10 07:09:54 51°15.277 2°49.535 2.6 34 16.9 101960 47
2010-09-10 07:09:59 51°15.281 2°49.54 2.3 25 17 101970 47
2010-09-10 07:10:04 51°15.284 2°49.545 2.6 33 17 101970 47
2010-09-10 07:10:09 51°15.288 2°49.55 3 23 17 101960 49
2010-09-10 07:10:14 51°15.292 2°49.555 3.7 35 17 101960 49
2010-09-10 07:10:18 51°15.294 2°49.559 4.1 23 17 101960 47
2010-09-10 07:10:24 51°15.298 2°49.564 3.4 37 17 101960 47
2010-09-10 07:10:29 51°15.302 2°49.569 3.8 28 17.1 101960 47
2010-09-10 07:10:34 51°15.306 2°49.572 4.1 34 17.1 101960 47
2010-09-10 07:10:39 51°15.31 2°49.577 4.7 29 17 101960 47
2010-09-10 07:10:44 51°15.314 2°49.58 4.9 32 17 101960 47
2010-09-10 07:10:49 51°15.318 2°49.584 4.6 25 17 101960 46
2010-09-10 07:10:54 51°15.323 2°49.589 4.9 34 17 101960 46
2010-09-10 07:10:59 51°15.326 2°49.593 4.9 23 17 101960 48
2010-09-10 07:11:04 51°15.33 2°49.597 3.7 39 17 101960 48
2010-09-10 07:11:09 51°15.334 2°49.601 5.6 27 16.9 101960 48
2010-09-10 07:11:14 51°15.338 2°49.606 4 38 16.9 101960 48
2010-09-10 07:11:19 51°15.342 2°49.611 3.7 28 16.9 101960 48
2010-09-10 07:11:24 51°15.345 2°49.615 4 35 16.9 101960 48
2010-09-10 07:11:29 51°15.349 2°49.62 3.8 23 16.9 101960 48
2010-09-10 07:11:34 51°15.352 2°49.624 2.4 35 16.9 101960 48
2010-09-10 07:11:39 51°15.356 2°49.629 2 30 16.9 101960 48
2010-09-10 07:11:44 51°15.36 2°49.634 3.1 54 16.9 101960 48
2010-09-10 07:11:49 51°15.363 2°49.639 2 28 16.9 101960 49
2010-09-10 07:11:54 51°15.367 2°49.644 2.4 38 16.9 101960 49
2010-09-10 07:11:59 51°15.371 2°49.649 3.5 27 17 101960 47
2010-09-10 07:12:04 51°15.374 2°49.653 3.8 33 17 101960 47
2010-09-10 07:12:09 51°15.377 2°49.659 4.9 22 17 101960 47
2010-09-10 07:12:14 51°15.381 2°49.663 2.5 40 17 101960 47
2010-09-10 07:12:19 51°15.384 2°49.669 2.3 21 17 101960 49
2010-09-10 07:12:24 51°15.388 2°49.673 3.7 38 17 101960 49
2010-09-10 07:12:29 51°15.392 2°49.678 4.1 19 17 101960 46
2010-09-10 07:12:34 51°15.395 2°49.683 3.3 40 17 101960 46
2010-09-10 07:12:39 51°15.399 2°49.687 3.4 22 17 101960 48
2010-09-10 07:12:44 51°15.402 2°49.692 2.8 35 17 101960 48
2010-09-10 07:12:49 51°15.405 2°49.697 3.6 24 17 101970 46
2010-09-10 07:12:54 51°15.408 2°49.703 2.7 34 17 101970 46
2010-09-10 07:12:59 51°15.412 2°49.707 3.3 23 17 101960 47
2010-09-10 07:13:04 51°15.416 2°49.712 2.1 36 17 101960 47
2010-09-10 07:13:09 51°15.419 2°49.717 2.4 23 17 101960 46
2010-09-10 07:13:14 51°15.422 2°49.722 2.8 34 17 101960 46
2010-09-10 07:13:19 51°15.425 2°49.727 3.9 23 17.1 101960 49
2010-09-10 07:13:24 51°15.428 2°49.733 2.7 84 17.1 101960 49
2010-09-10 07:13:29 51°15.431 2°49.738 3.2 21 17.1 101970 49
2010-09-10 07:13:34 51°15.434 2°49.743 3.6 40 17.1 101970 49
2010-09-10 07:13:39 51°15.437 2°49.748 2.3 24 17.1 101970 46
2010-09-10 07:13:45 51°15.441 2°49.755 3.7 53 17.1 101970 46
2010-09-10 07:13:49 51°15.443 2°49.76 2.4 22 17.1 101960 49
2010-09-10 07:13:54 51°15.445 2°49.766 4.4 33 17.1 101960 49
2010-09-10 07:13:59 51°15.448 2°49.772 3.5 29 17.2 101970 47
2010-09-10 07:14:04 51°15.45 2°49.778 4.3 32 17.2 101970 47
2010-09-10 07:14:09 51°15.452 2°49.784 4.2 20 17.2 101960 49
2010-09-10 07:14:15 51°15.455 2°49.791 5.8 34 17.2 101960 49
2010-09-10 07:14:19 51°15.457 2°49.796 5.2 30 17.3 101960 45
2010-09-10 07:14:24 51°15.459 2°49.802 4.9 37 17.3 101960 45
2010-09-10 07:14:29 51°15.461 2°49.808 5.2 30 17.2 101960 48
2010-09-10 07:14:34 51°15.464 2°49.814 5.1 57 17.2 101960 48
2010-09-10 07:14:39 51°15.466 2°49.82 5.3 22 17.2 101960 47
2010-09-10 07:14:44 51°15.468 2°49.827 4 35 17.2 101960 47
2010-09-10 07:14:49 51°15.47 2°49.833 5.1 24 17.1 101960 47
2010-09-10 07:14:54 51°15.473 2°49.839 5.2 32 17.1 101960 47
2010-09-10 07:14:59 51°15.475 2°49.845 5.3 28 17.1 101970 48
2010-09-10 07:15:03 51°15.476 2°49.85 4.2 35 17.1 101970 48
2010-09-10 07:15:09 51°15.48 2°49.858 4.4 22 17.1 101970 46
2010-09-10 07:15:14 51°15.482 2°49.864 4.7 39 17.1 101970 46
2010-09-10 07:15:19 51°15.483 2°49.87 5.2 23 17.1 101970 48
2010-09-10 07:15:24 51°15.485 2°49.877 5 33 17.1 101970 48
2010-09-10 07:15:29 51°15.488 2°49.883 5.4 27 17.1 101960 46
2010-09-10 07:15:34 51°15.489 2°49.89 5.1 35 17.1 101960 46
2010-09-10 07:15:39 51°15.491 2°49.896 3.7 30 17.1 101960 46
2010-09-10 07:15:43 51°15.493 2°49.901 4.1 53 17.1 101960 46
2010-09-10 07:15:49 51°15.495 2°49.908 4.8 21 17 101960 46
2010-09-10 07:15:54 51°15.497 2°49.915 4.5 32 17 101960 46
2010-09-10 07:15:59 51°15.499 2°49.921 4.4 22 17 101960 49
2010-09-10 07:16:04 51°15.501 2°49.927 5.3 33 17 101960 49
2010-09-10 07:16:09 51°15.503 2°49.934 5.1 23 17 101960 46
2010-09-10 07:16:14 51°15.505 2°49.94 5.6 34 17 101960 46
2010-09-10 07:16:19 51°15.507 2°49.947 5.5 20 17 101960 48
2010-09-10 07:16:23 51°15.508 2°49.952 5.1 31 17 101960 48
2010-09-10 07:16:29 51°15.51 2°49.96 5.3 26 17 101960 46
2010-09-10 07:16:34 51°15.512 2°49.966 5.2 41 17 101960 46
2010-09-10 07:16:39 51°15.513 2°49.973 5.7 23 17 101960 47
2010-09-10 07:16:44 51°15.515 2°49.98 6.2 33 17 101960 47
2010-09-10 07:16:49 51°15.516 2°49.986 5.9 28 17 101970 46
2010-09-10 07:16:54 51°15.518 2°49.993 6 44 17 101970 46
2010-09-10 07:16:59 51°15.519 2°50 5.2 43 16.9 101960 47
2010-09-10 07:17:03 51°15.52 2°50.005 5.3 33 16.9 101960 47
2010-09-10 07:17:09 51°15.522 2°50.013 5.1 45 16.9 101960 46
2010-09-10 07:17:14 51°15.523 2°50.02 5.8 34 16.9 101960 46
2010-09-10 07:17:19 51°15.525 2°50.027 5.5 24 16.9 101970 46
2010-09-10 07:17:24 51°15.526 2°50.034 5.9 34 16.9 101970 46
2010-09-10 07:17:29 51°15.527 2°50.041 5.8 21 16.9 101970 47
2010-09-10 07:17:34 51°15.528 2°50.047 5.4 38 16.9 101970 47
2010-09-10 07:17:39 51°15.529 2°50.054 5.6 27 16.9 101960 47
2010-09-10 07:17:48 51°15.531 2°50.067 5.6 27 16.9 101960 47
2010-09-10 07:17:53 51°15.531 2°50.074 5.6 27 16.9 101960 47
2010-09-10 07:18:56 51°15.537 2°50.163 -999 -999 -999 -999 -999
2010-09-10 07:19:01 51°15.537 2°50.169 -999 -999 -999 -999 -999
2010-09-10 07:19:06 51°15.537 2°50.177 -999 -999 -999 -999 -999
2010-09-10 07:19:11 51°15.537 2°50.184 -999 -999 -999 -999 -999
2010-09-10 07:19:16 51°15.537 2°50.19 -999 -999 -999 -999 -999
2010-09-10 07:19:20 51°15.537 2°50.196 -999 -999 -999 -999 -999
2010-09-10 07:19:26 51°15.536 2°50.205 -999 -999 -999 -999 -999
2010-09-10 07:19:30 51°15.536 2°50.211 6.3 38 -999 -999 -999
2010-09-10 07:19:35 51°15.535 2°50.218 5.9 35 -999 -999 -999
2010-09-10 07:19:40 51°15.534 2°50.225 6.2 38 -999 -999 -999
2010-09-10 07:19:45 51°15.533 2°50.231 6 39 -999 -999 -999
2010-09-10 07:19:50 51°15.533 2°50.238 5.6 33 16.7 -999 32
2010-09-10 07:19:55 51°15.531 2°50.246 5.6 34 16.7 -999 32
2010-09-10 07:19:59 51°15.531 2°50.252 6.2 38 16.8 -999 52
2010-09-10 07:20:04 51°15.53 2°50.259 6.9 35 16.8 -999 52
2010-09-10 07:20:09 51°15.528 2°50.266 7.5 38 16.8 101960 52
2010-09-10 07:20:14 51°15.527 2°50.273 7.1 37 16.8 101960 52
2010-09-10 07:20:19 51°15.526 2°50.28 6.6 37 16.8 101970 53
2010-09-10 07:20:24 51°15.525 2°50.287 6.6 37 16.8 101970 53
2010-09-10 07:20:28 51°15.524 2°50.292 6.5 38 16.8 101970 51
2010-09-10 07:20:33 51°15.523 2°50.299 6.2 33 16.8 101970 51
2010-09-10 07:20:38 51°15.522 2°50.306 6.3 38 16.8 101970 51
2010-09-10 07:20:43 51°15.521 2°50.313 6.6 37 16.8 101970 51
2010-09-10 07:20:48 51°15.52 2°50.32 6.1 36 16.7 101970 50
2010-09-10 07:20:53 51°15.519 2°50.327 5.8 39 16.7 101970 50
2010-09-10 07:20:58 51°15.518 2°50.334 5.9 37 16.7 101970 50
2010-09-10 07:21:03 51°15.516 2°50.34 5.6 38 16.7 101970 50
2010-09-10 07:21:07 51°15.515 2°50.345 5.8 38 16.7 101970 50
2010-09-10 07:21:12 51°15.513 2°50.352 5.5 29 16.7 101970 50
2010-09-10 07:21:17 51°15.512 2°50.358 5.2 28 16.7 101970 51
2010-09-10 07:21:22 51°15.51 2°50.364 5.5 28 16.7 101970 51
2010-09-10 07:21:27 51°15.508 2°50.37 5.8 34 16.8 101970 50
2010-09-10 07:21:31 51°15.506 2°50.375 6.9 32 16.8 101970 50
2010-09-10 07:21:37 51°15.504 2°50.381 6.4 32 16.8 101970 51
2010-09-10 07:21:42 51°15.502 2°50.387 6 32 16.8 101970 51
2010-09-10 07:21:47 51°15.5 2°50.392 7 26 16.8 101970 51
2010-09-10 07:21:52 51°15.498 2°50.398 6.3 29 16.8 101970 51
2010-09-10 07:21:57 51°15.495 2°50.403 7.3 29 16.8 101970 50
2010-09-10 07:22:02 51°15.492 2°50.408 7.3 29 16.8 101970 50
2010-09-10 07:22:07 51°15.489 2°50.412 6.9 27 16.8 101970 49
2010-09-10 07:22:12 51°15.487 2°50.417 6.7 24 16.8 101970 49
2010-09-10 07:22:17 51°15.483 2°50.421 6.9 25 16.7 101970 49
2010-09-10 07:22:22 51°15.48 2°50.425 7.6 24 16.7 101970 49
2010-09-10 07:22:27 51°15.477 2°50.429 7.7 25 16.8 101970 50
2010-09-10 07:22:32 51°15.473 2°50.433 8 25 16.8 101970 50
2010-09-10 07:22:37 51°15.47 2°50.437 7.6 26 16.7 101970 49
2010-09-10 07:22:42 51°15.466 2°50.44 8.1 25 16.7 101970 49
2010-09-10 07:22:47 51°15.462 2°50.444 7.6 22 16.7 101970 47
2010-09-10 07:22:52 51°15.458 2°50.447 7.2 18 16.7 101970 47
2010-09-10 07:22:57 51°15.455 2°50.451 7.9 19 16.7 101970 49
2010-09-10 07:23:02 51°15.45 2°50.454 8.9 17 16.7 101970 49
2010-09-10 07:23:07 51°15.446 2°50.456 8.6 17 16.7 101970 49
2010-09-10 07:23:12 51°15.442 2°50.459 8.6 17 16.7 101970 49
2010-09-10 07:23:17 51°15.437 2°50.461 10.2 17 16.8 101970 50
2010-09-10 07:23:22 51°15.433 2°50.463 8.6 13 16.8 101970 50
2010-09-10 07:23:27 51°15.429 2°50.465 7.5 15 16.7 101970 49
2010-09-10 07:23:32 51°15.424 2°50.467 9.2 13 16.7 101970 49
2010-09-10 07:23:37 51°15.42 2°50.468 8.8 14 16.7 101970 48
2010-09-10 07:23:42 51°15.415 2°50.47 9.8 12 16.7 101970 48
2010-09-10 07:23:47 51°15.411 2°50.471 9 10 16.8 101970 49
2010-09-10 07:23:52 51°15.406 2°50.472 7.4 9 16.8 101970 49
2010-09-10 07:23:57 51°15.401 2°50.473 8.6 7 16.8 101960 49
2010-09-10 07:24:02 51°15.396 2°50.473 8.3 7 16.8 101960 49
2010-09-10 07:24:07 51°15.391 2°50.474 6.5 4 16.7 101970 49
2010-09-10 07:24:12 51°15.387 2°50.474 6.9 4 16.7 101970 49
2010-09-10 07:24:17 51°15.381 2°50.474 7 7 16.7 101970 49
2010-09-10 07:24:22 51°15.376 2°50.474 7.2 8 16.7 101970 49
2010-09-10 07:24:27 51°15.371 2°50.473 7.9 3 16.7 101960 48
2010-09-10 07:24:32 51°15.366 2°50.472 7 4 16.7 101960 48
2010-09-10 07:24:37 51°15.362 2°50.471 7.6 2 16.7 101960 50
2010-09-10 07:24:42 51°15.356 2°50.47 7.2 3 16.7 101960 50
2010-09-10 07:24:47 51°15.351 2°50.468 7.2 357 16.8 101960 49
2010-09-10 07:24:51 51°15.347 2°50.466 6.5 -999 16.8 101960 49
2010-09-10 07:24:57 51°15.341 2°50.464 8.3 358 16.7 101960 48
2010-09-10 07:25:02 51°15.336 2°50.461 7.2 355 16.7 101960 48
2010-09-10 07:25:07 51°15.331 2°50.458 7.9 355 16.7 101960 48
2010-09-10 07:25:12 51°15.326 2°50.455 7 355 16.7 101960 48
2010-09-10 07:25:17 51°15.321 2°50.452 7.5 354 16.8 101960 49
2010-09-10 07:25:22 51°15.317 2°50.448 8.9 353 16.8 101960 49
2010-09-10 07:25:27 51°15.312 2°50.445 8.3 352 16.8 101960 48
2010-09-10 07:25:32 51°15.308 2°50.442 9.2 350 16.8 101960 48
2010-09-10 07:25:37 51°15.303 2°50.438 7.3 350 16.8 101960 48
2010-09-10 07:25:42 51°15.299 2°50.434 7.2 350 16.8 101960 48
2010-09-10 07:25:47 51°15.295 2°50.43 7.2 349 16.8 101950 48
2010-09-10 07:25:52 51°15.291 2°50.427 8 347 16.8 101950 48
2010-09-10 07:25:57 51°15.287 2°50.424 9.7 350 16.8 101960 49
2010-09-10 07:26:02 51°15.283 2°50.42 9.5 280 16.8 101960 49
2010-09-10 07:26:07 51°15.278 2°50.417 7.4 349 16.8 101960 49
2010-09-10 07:26:12 51°15.274 2°50.413 7.8 349 16.8 101960 49
2010-09-10 07:26:17 51°15.271 2°50.409 7.5 350 16.8 101960 48
2010-09-10 07:26:22 51°15.267 2°50.406 6.8 280 16.8 101960 48
2010-09-10 07:26:27 51°15.264 2°50.403 7.8 348 16.8 101950 47
2010-09-10 07:26:32 51°15.261 2°50.399 7.4 280 16.8 101950 47
2010-09-10 07:26:37 51°15.258 2°50.395 7.8 345 16.8 101960 48
2010-09-10 07:26:42 51°15.254 2°50.391 8.1 279 16.8 101960 48
2010-09-10 07:26:47 51°15.251 2°50.387 8.5 347 16.8 101960 48
2010-09-10 07:26:52 51°15.248 2°50.384 9.4 284 16.8 101960 48
2010-09-10 07:26:57 51°15.245 2°50.38 8.4 345 16.8 101950 48
2010-09-10 07:27:02 51°15.242 2°50.376 8.7 282 16.8 101950 48
2010-09-10 07:27:07 51°15.24 2°50.372 9.3 343 16.7 101960 47
2010-09-10 07:27:12 51°15.237 2°50.368 8.7 283 16.7 101960 47
2010-09-10 07:27:17 51°15.235 2°50.364 7.9 344 16.7 101950 48
2010-09-10 07:27:22 51°15.232 2°50.36 8 279 16.7 101950 48
2010-09-10 07:27:27 51°15.23 2°50.356 8.2 343 16.7 101950 48
2010-09-10 07:27:32 51°15.227 2°50.352 8.1 284 16.7 101950 48
2010-09-10 07:27:37 51°15.224 2°50.347 7.4 338 16.7 101950 49
2010-09-10 07:27:42 51°15.221 2°50.343 8.2 282 16.7 101950 49
2010-09-10 07:27:47 51°15.218 2°50.338 8.1 336 16.7 101960 48
2010-09-10 07:27:52 51°15.215 2°50.333 7.8 278 16.7 101960 48
2010-09-10 07:27:57 51°15.212 2°50.327 8.3 335 16.7 101950 47
2010-09-10 07:28:02 51°15.209 2°50.321 8.1 278 16.7 101950 47
2010-09-10 07:28:07 51°15.206 2°50.315 9.8 333 16.7 101960 46
2010-09-10 07:28:12 51°15.203 2°50.308 8.4 279 16.7 101960 46
2010-09-10 07:28:17 51°15.201 2°50.302 8.4 331 16.7 101950 47
2010-09-10 07:28:22 51°15.198 2°50.296 9.7 284 16.7 101950 47
2010-09-10 07:28:27 51°15.196 2°50.289 9.4 328 16.7 101960 48
2010-09-10 07:28:32 51°15.194 2°50.283 8.8 281 16.7 101960 48
2010-09-10 07:28:37 51°15.192 2°50.277 7.9 326 16.7 101960 48
2010-09-10 07:28:42 51°15.19 2°50.271 7.9 279 16.7 101960 48
2010-09-10 07:28:47 51°15.189 2°50.265 8.1 330 16.7 101960 47
2010-09-10 07:28:52 51°15.187 2°50.258 7.6 278 16.7 101960 47
2010-09-10 07:28:57 51°15.185 2°50.252 9.4 325 16.7 101960 48
2010-09-10 07:29:02 51°15.183 2°50.245 8.6 280 16.7 101960 48
2010-09-10 07:29:07 51°15.181 2°50.237 8.6 326 16.7 101960 49
2010-09-10 07:29:12 51°15.18 2°50.229 8.8 278 16.7 101960 49
2010-09-10 07:29:17 51°15.177 2°50.22 9.4 325 16.8 101960 49
2010-09-10 07:29:22 51°15.175 2°50.211 8.9 284 16.8 101960 49
2010-09-10 07:29:27 51°15.172 2°50.2 9.6 326 16.8 101960 47
2010-09-10 07:29:32 51°15.17 2°50.189 8.9 282 16.8 101960 47
2010-09-10 07:29:37 51°15.167 2°50.176 10.9 326 16.8 101960 49
2010-09-10 07:29:42 51°15.164 2°50.162 9.1 283 16.8 101960 49
2010-09-10 07:29:47 51°15.16 2°50.148 9.7 330 16.8 101950 47
2010-09-10 07:29:51 51°15.157 2°50.135 9.5 279 16.8 101950 47
2010-09-10 07:29:57 51°15.152 2°50.115 11.7 328 16.8 101960 48
2010-09-10 07:30:02 51°15.147 2°50.097 11.1 284 16.8 101960 48
2010-09-10 07:30:07 51°15.142 2°50.08 11.3 331 16.8 101960 47
2010-09-10 07:30:12 51°15.136 2°50.062 11.4 277 16.8 101960 47
2010-09-10 07:30:17 51°15.129 2°50.044 11.3 332 16.8 101960 48
2010-09-10 07:30:22 51°15.123 2°50.026 12.1 286 16.8 101960 48
2010-09-10 07:30:27 51°15.115 2°50.008 10.9 333 16.8 101950 48
2010-09-10 07:30:32 51°15.108 2°49.99 10.5 285 16.8 101950 48
2010-09-10 07:30:37 51°15.1 2°49.971 11.4 333 16.8 101950 48
2010-09-10 07:30:42 51°15.092 2°49.953 12 282 16.8 101950 48
2010-09-10 07:30:47 51°15.084 2°49.934 12.3 332 16.8 101940 46
2010-09-10 07:30:52 51°15.077 2°49.917 11.5 335 16.8 101940 46
2010-09-10 07:30:57 51°15.07 2°49.901 12.2 334 16.8 101950 48
2010-09-10 07:31:02 51°15.063 2°49.886 11.6 280 16.8 101950 48
2010-09-10 07:31:07 51°15.057 2°49.872 10.9 336 16.8 101940 47
2010-09-10 07:31:12 51°15.05 2°49.86 10.3 282 16.8 101940 47
2010-09-10 07:31:17 51°15.044 2°49.848 10.7 336 16.8 101950 48
2010-09-10 07:31:22 51°15.038 2°49.837 10.3 282 16.8 101950 48
2010-09-10 07:31:27 51°15.032 2°49.826 10.4 336 16.8 101950 47
2010-09-10 07:31:32 51°15.027 2°49.816 9.6 281 16.8 101950 47
2010-09-10 07:31:37 51°15.022 2°49.807 9.4 335 16.8 101950 47
2010-09-10 07:31:42 51°15.018 2°49.797 10.2 334 16.8 101950 47
2010-09-10 07:31:47 51°15.013 2°49.788 8.7 336 16.8 101950 47
2010-09-10 07:31:52 51°15.009 2°49.779 9.4 283 16.8 101950 47
2010-09-10 07:31:57 51°15.006 2°49.769 8.9 333 16.8 101950 46
2010-09-10 07:32:02 51°15.003 2°49.76 8.9 277 16.8 101950 46
2010-09-10 07:32:07 51°14.999 2°49.752 8.2 331 16.8 101950 47
2010-09-10 07:32:11 51°14.997 2°49.745 7.4 278 16.8 101950 47
2010-09-10 07:32:17 51°14.993 2°49.735 6.8 330 16.8 101950 48
2010-09-10 07:32:22 51°14.991 2°49.727 7 283 16.8 101950 48
2010-09-10 07:32:27 51°14.988 2°49.72 7.1 331 16.8 101960 48
2010-09-10 07:32:32 51°14.986 2°49.713 8.8 303 16.8 101960 48
2010-09-10 07:32:37 51°14.984 2°49.705 8.5 326 16.8 101960 47
2010-09-10 07:32:42 51°14.982 2°49.698 8.7 279 16.8 101960 47
2010-09-10 07:32:47 51°14.979 2°49.691 8.7 326 16.9 101970 47
2010-09-10 07:32:52 51°14.977 2°49.683 8.6 284 16.9 101970 47
2010-09-10 07:32:57 51°14.975 2°49.676 8.7 327 16.9 101960 47
2010-09-10 07:33:02 51°14.973 2°49.669 7.6 284 16.9 101960 47
2010-09-10 07:33:07 51°14.971 2°49.662 8.4 330 16.9 101960 47
2010-09-10 07:33:12 51°14.968 2°49.656 7.6 277 16.9 101960 47
2010-09-10 07:33:17 51°14.966 2°49.65 8 334 16.9 101960 47
2010-09-10 07:33:22 51°14.963 2°49.643 7.7 278 16.9 101960 47
2010-09-10 07:33:27 51°14.96 2°49.636 8.5 339 16.9 101970 45
2010-09-10 07:33:32 51°14.956 2°49.63 8.9 284 16.9 101970 45
2010-09-10 07:33:37 51°14.953 2°49.624 8.7 346 16.9 101960 47
2010-09-10 07:33:42 51°14.948 2°49.619 8.6 349 16.9 101960 47
2010-09-10 07:33:47 51°14.943 2°49.614 8.3 351 16.9 101960 47
2010-09-10 07:33:52 51°14.939 2°49.61 8.3 356 16.9 101960 47
2010-09-10 07:33:57 51°14.934 2°49.606 7.9 358 16.9 101960 46
2010-09-10 07:34:02 51°14.928 2°49.604 6.9 1 16.9 101960 46
2010-09-10 07:34:07 51°14.923 2°49.602 6.5 5 16.9 101950 47
2010-09-10 07:34:12 51°14.916 2°49.602 8.5 6 16.9 101950 47
2010-09-10 07:34:17 51°14.911 2°49.604 7.9 13 16.9 101960 47
2010-09-10 07:34:22 51°14.905 2°49.606 7.2 14 16.9 101960 47
2010-09-10 07:34:27 51°14.901 2°49.609 7.5 20 16.9 101960 48
2010-09-10 07:34:32 51°14.896 2°49.615 7.6 25 16.9 101960 48
2010-09-10 07:34:36 51°14.893 2°49.619 7.1 30 16.9 101970 48
2010-09-10 07:34:42 51°14.888 2°49.626 6.8 32 16.9 101970 48
2010-09-10 07:34:47 51°14.886 2°49.634 6.7 40 16.9 101960 46
2010-09-10 07:34:52 51°14.884 2°49.642 5.8 42 16.9 101960 46
2010-09-10 07:34:56 51°14.883 2°49.649 5.1 30 16.9 101970 47
2010-09-10 07:35:02 51°14.883 2°49.659 3.6 76 16.9 101970 47
2010-09-10 07:35:07 51°14.883 2°49.668 3.8 21 16.9 101980 46
2010-09-10 07:35:11 51°14.884 2°49.677 3 43 16.9 101980 46
2010-09-10 07:35:16 51°14.886 2°49.688 3 44 16.8 101980 46
2010-09-10 07:35:23 51°14.889 2°49.705 3.8 78 16.8 101980 46
2010-09-10 07:35:26 51°14.89 2°49.713 3.6 23 16.8 101980 49
2010-09-10 07:35:31 51°14.892 2°49.727 3.2 43 16.8 101980 49
2010-09-10 07:35:36 51°14.894 2°49.742 3.2 38 16.8 101980 46
2010-09-10 07:35:42 51°14.896 2°49.761 3.6 35 16.8 101980 46
2010-09-10 07:35:47 51°14.898 2°49.777 2.8 35 16.9 101980 46
2010-09-10 07:35:51 51°14.898 2°49.79 4.5 31 16.9 101980 46
2010-09-10 07:35:56 51°14.898 2°49.807 4.2 34 16.8 101980 47
2010-09-10 07:36:02 51°14.899 2°49.828 4.5 32 16.8 101980 47
2010-09-10 07:36:07 51°14.897 2°49.846 4 35 16.9 101980 48
2010-09-10 07:36:12 51°14.897 2°49.864 3.9 33 16.9 101980 48
2010-09-10 07:36:16 51°14.895 2°49.879 4 30 16.8 101980 47
2010-09-10 07:36:21 51°14.894 2°49.897 3.9 25 16.8 101980 47
2010-09-10 07:36:27 51°14.892 2°49.918 4.5 27 16.8 101980 48
2010-09-10 07:36:32 51°14.89 2°49.937 4.4 27 16.8 101980 48
2010-09-10 07:36:37 51°14.888 2°49.955 4 22 16.8 101980 46
2010-09-10 07:36:42 51°14.885 2°49.974 4.4 23 16.8 101980 46
2010-09-10 07:36:48 51°14.883 2°49.996 4.2 25 16.8 101980 46
2010-09-10 07:36:52 51°14.88 2°50.012 4.6 25 16.8 101980 46
2010-09-10 07:36:56 51°14.879 2°50.027 3.7 21 16.8 101980 46
2010-09-10 07:37:02 51°14.876 2°50.049 4.7 25 16.8 101980 46
2010-09-10 07:37:07 51°14.874 2°50.068 5 22 16.8 101980 46
2010-09-10 07:37:12 51°14.871 2°50.088 5.1 26 16.8 101980 46
2010-09-10 07:37:17 51°14.869 2°50.108 4.5 21 16.8 101980 47
2010-09-10 07:37:22 51°14.866 2°50.128 4.1 23 16.8 101980 47
2010-09-10 07:37:27 51°14.864 2°50.15 4.1 21 16.8 101980 48
2010-09-10 07:37:32 51°14.861 2°50.171 5.2 25 16.8 101980 48
2010-09-10 07:37:37 51°14.859 2°50.193 4.3 20 16.8 101980 48
2010-09-10 07:37:43 51°14.856 2°50.219 5 20 16.8 101980 48
2010-09-10 07:37:47 51°14.854 2°50.237 4.2 19 16.8 101980 48
2010-09-10 07:37:52 51°14.852 2°50.259 5.2 21 16.8 101980 48
2010-09-10 07:37:57 51°14.849 2°50.281 4.8 22 16.8 101980 46
2010-09-10 07:38:02 51°14.847 2°50.303 4.4 23 16.8 101980 46
2010-09-10 07:38:08 51°14.844 2°50.33 4.4 29 16.8 101980 46
2010-09-10 07:38:12 51°14.842 2°50.347 3.7 24 16.8 101980 46
2010-09-10 07:38:17 51°14.839 2°50.37 3.8 24 16.8 101980 46
2010-09-10 07:38:23 51°14.837 2°50.397 4 18 16.8 101980 46
2010-09-10 07:38:28 51°14.833 2°50.419 4.3 17 16.8 101980 46
2010-09-10 07:38:32 51°14.832 2°50.437 3.6 22 16.8 101980 46
2010-09-10 07:38:37 51°14.83 2°50.46 4.5 20 16.8 101990 46
2010-09-10 07:38:42 51°14.827 2°50.483 4 23 16.8 101990 46
2010-09-10 07:38:48 51°14.824 2°50.511 4.3 18 16.8 101990 47
2010-09-10 07:38:52 51°14.822 2°50.529 4 19 16.8 101990 47
2010-09-10 07:38:57 51°14.82 2°50.551 4.4 19 16.8 101980 47
2010-09-10 07:39:02 51°14.818 2°50.574 4.2 21 16.8 101980 47
2010-09-10 07:39:07 51°14.816 2°50.597 4.2 20 16.8 101980 46
2010-09-10 07:39:12 51°14.814 2°50.62 5 26 16.8 101980 46
2010-09-10 07:39:17 51°14.812 2°50.642 4.5 22 16.8 101980 46
2010-09-10 07:39:22 51°14.811 2°50.665 4.7 26 16.8 101980 46
2010-09-10 07:39:27 51°14.809 2°50.688 4.1 24 16.8 101980 48
2010-09-10 07:39:32 51°14.808 2°50.711 4.5 26 16.8 101980 48
2010-09-10 07:39:37 51°14.807 2°50.734 4 31 16.8 101990 47
2010-09-10 07:39:43 51°14.806 2°50.761 3.6 28 16.8 101990 47
2010-09-10 07:39:47 51°14.806 2°50.779 3.3 27 16.8 101990 46
2010-09-10 07:39:52 51°14.805 2°50.802 3.2 21 16.8 101990 46
2010-09-10 07:39:57 51°14.804 2°50.825 3.9 26 16.8 101990 48
2010-09-10 07:40:02 51°14.803 2°50.848 3 25 16.8 101990 48
2010-09-10 07:40:08 51°14.801 2°50.876 3.4 26 16.8 101990 46
2010-09-10 07:40:12 51°14.801 2°50.894 3.6 25 16.8 101990 46
2010-09-10 07:40:16 51°14.8 2°50.913 3.2 28 16.8 101990 47
2010-09-10 07:40:22 51°14.8 2°50.94 3.6 30 16.8 101990 47
2010-09-10 07:40:27 51°14.799 2°50.963 3.4 26 16.8 101990 46
2010-09-10 07:40:32 51°14.799 2°50.985 3.3 21 16.8 101990 46
2010-09-10 07:40:37 51°14.798 2°51.007 3.9 20 16.8 101990 46
2010-09-10 07:40:42 51°14.797 2°51.029 3.9 27 16.8 101990 46
2010-09-10 07:40:48 51°14.796 2°51.054 3.7 26 16.8 101990 46
2010-09-10 07:40:52 51°14.795 2°51.071 3.3 24 16.8 101990 46
2010-09-10 07:40:57 51°14.794 2°51.091 4 29 16.8 101990 48
2010-09-10 07:41:02 51°14.793 2°51.111 3 23 16.8 101990 48
2010-09-10 07:41:08 51°14.791 2°51.135 4.2 24 16.8 101990 46
2010-09-10 07:41:12 51°14.79 2°51.15 5.5 23 16.8 101990 46
2010-09-10 07:41:17 51°14.786 2°51.168 5.6 23 16.8 101990 49
2010-09-10 07:41:22 51°14.781 2°51.185 6.4 23 16.8 101990 49
2010-09-10 07:41:28 51°14.776 2°51.205 5.7 20 16.8 101990 47
2010-09-10 07:41:32 51°14.772 2°51.218 6 17 16.8 101990 47
2010-09-10 07:41:37 51°14.765 2°51.234 5.5 18 16.9 101990 46
2010-09-10 07:41:43 51°14.759 2°51.252 6.7 19 16.9 101990 46
2010-09-10 07:41:47 51°14.754 2°51.263 5.9 17 16.8 101990 46
2010-09-10 07:41:52 51°14.749 2°51.278 6.1 19 16.8 101990 46
2010-09-10 07:41:57 51°14.744 2°51.292 6.1 18 16.9 101980 48
2010-09-10 07:42:03 51°14.739 2°51.31 5.8 24 16.9 101980 48
2010-09-10 07:42:07 51°14.736 2°51.321 7.6 26 16.9 101990 46
2010-09-10 07:42:12 51°14.732 2°51.335 5.9 25 16.9 101990 46
2010-09-10 07:42:17 51°14.728 2°51.349 5 26 16.8 101990 46
2010-09-10 07:42:22 51°14.725 2°51.363 4.8 32 16.8 101990 46
2010-09-10 07:42:27 51°14.723 2°51.377 4.6 29 16.8 101990 46
2010-09-10 07:42:32 51°14.721 2°51.391 5.6 33 16.8 101990 46
2010-09-10 07:42:37 51°14.719 2°51.404 5.4 35 16.8 102000 46
2010-09-10 07:42:42 51°14.718 2°51.418 5.6 37 16.8 102000 46
2010-09-10 07:42:47 51°14.716 2°51.431 4.8 40 16.8 101990 46
2010-09-10 07:42:52 51°14.716 2°51.443 3.6 37 16.8 101990 46
2010-09-10 07:42:56 51°14.716 2°51.452 3.6 28 16.8 101990 46
2010-09-10 07:43:02 51°14.717 2°51.464 4.7 59 16.8 101990 46
2010-09-10 07:43:07 51°14.72 2°51.472 3.2 20 16.8 101990 46
2010-09-10 07:43:12 51°14.722 2°51.48 3.1 51 16.8 101990 46
2010-09-10 07:43:16 51°14.724 2°51.486 3.6 29 16.8 101990 48
2010-09-10 07:43:22 51°14.728 2°51.492 3.9 76 16.8 101990 48
2010-09-10 07:43:27 51°14.731 2°51.497 5.6 22 16.8 101990 46
2010-09-10 07:43:32 51°14.735 2°51.501 6.1 56 16.8 101990 46
2010-09-10 07:43:36 51°14.737 2°51.503 6.3 20 16.9 101990 47
2010-09-10 07:43:42 51°14.742 2°51.506 6 80 16.9 101990 47
2010-09-10 07:43:47 51°14.745 2°51.508 6.8 23 16.8 101990 46
2010-09-10 07:43:52 51°14.748 2°51.51 6.2 75 16.8 101990 46
2010-09-10 07:43:56 51°14.751 2°51.511 6 28 16.8 101990 48
2010-09-10 07:44:02 51°14.755 2°51.512 6 78 16.8 101990 48
2010-09-10 07:44:07 51°14.758 2°51.513 6.1 23 16.8 101990 45
2010-09-10 07:44:12 51°14.761 2°51.513 6 80 16.8 101990 45
2010-09-10 07:44:17 51°14.764 2°51.514 7.1 29 16.8 101980 46
2010-09-10 07:44:22 51°14.767 2°51.514 6.6 76 16.8 101980 46
2010-09-10 07:44:27 51°14.77 2°51.514 6.8 21 16.8 101980 46
2010-09-10 07:44:32 51°14.772 2°51.513 6.9 78 16.8 101980 46
2010-09-10 07:44:37 51°14.774 2°51.513 6.2 21 16.8 101980 47
2010-09-10 07:44:42 51°14.776 2°51.512 4.7 306 16.8 101980 47
2010-09-10 07:44:47 51°14.777 2°51.51 5.4 268 16.8 101990 46
2010-09-10 07:44:52 51°14.777 2°51.509 4.7 283 16.8 101990 46
2010-09-10 07:44:56 51°14.778 2°51.508 5.8 265 16.8 101990 49
2010-09-10 07:45:02 51°14.778 2°51.506 5.4 285 16.8 101990 49
2010-09-10 07:45:07 51°14.777 2°51.504 5.3 265 16.8 101980 46
2010-09-10 07:45:12 51°14.777 2°51.502 5.1 301 16.8 101980 46
2010-09-10 07:45:16 51°14.776 2°51.501 5.2 267 16.8 101980 47
2010-09-10 07:45:22 51°14.776 2°51.5 4.9 278 16.8 101980 47
2010-09-10 07:45:28 51°14.776 2°51.499 6.7 266 16.8 101980 46
2010-09-10 07:45:32 51°14.775 2°51.497 6.1 283 16.8 101980 46
2010-09-10 07:45:36 51°14.775 2°51.496 4.8 263 16.8 101980 46
2010-09-10 07:45:41 51°14.775 2°51.494 5 279 16.8 101980 46
2010-09-10 07:45:47 51°14.774 2°51.493 4.6 263 16.8 101980 48
2010-09-10 07:45:52 51°14.774 2°51.492 6 281 16.8 101980 48
2010-09-10 07:45:56 51°14.773 2°51.49 5.8 265 16.8 101980 46
2010-09-10 07:46:01 51°14.773 2°51.489 4 284 16.8 101980 46
2010-09-10 07:46:07 51°14.772 2°51.488 7 259 16.8 101980 48
2010-09-10 07:46:12 51°14.772 2°51.487 6.2 306 16.8 101980 48
2010-09-10 07:46:16 51°14.771 2°51.486 6 263 16.8 101980 48
2010-09-10 07:46:22 51°14.771 2°51.484 5.2 281 16.8 101980 48
2010-09-10 07:46:26 51°14.771 2°51.483 6.4 262 16.8 101980 47
2010-09-10 07:46:32 51°14.77 2°51.482 6 305 16.8 101980 47
2010-09-10 07:46:36 51°14.77 2°51.482 5.8 263 16.8 101980 46
2010-09-10 07:46:42 51°14.769 2°51.48 5 284 16.8 101980 46
2010-09-10 07:46:48 51°14.769 2°51.478 6.3 263 16.8 101980 45
2010-09-10 07:46:53 51°14.768 2°51.477 5.7 278 16.8 101980 45
2010-09-10 07:46:57 51°14.768 2°51.476 4.9 263 16.8 101980 48
2010-09-10 07:47:02 51°14.767 2°51.474 5.7 278 16.8 101980 48
2010-09-10 07:47:07 51°14.766 2°51.473 5.9 262 16.8 101980 47
2010-09-10 07:47:12 51°14.765 2°51.472 5.5 277 16.8 101980 47
2010-09-10 07:47:17 51°14.764 2°51.471 6 263 16.8 101980 47
2010-09-10 07:47:22 51°14.763 2°51.469 6.6 307 16.8 101980 47
2010-09-10 07:47:27 51°14.763 2°51.468 6.2 262 16.8 101980 46
2010-09-10 07:47:32 51°14.763 2°51.467 7.2 279 16.8 101980 46
2010-09-10 07:47:37 51°14.762 2°51.466 6.2 260 16.8 101980 47
2010-09-10 07:47:41 51°14.761 2°51.465 6.8 285 16.8 101980 47
2010-09-10 07:47:47 51°14.76 2°51.463 5.6 262 16.8 101980 46
2010-09-10 07:47:52 51°14.759 2°51.463 6.4 278 16.8 101980 46
2010-09-10 07:47:57 51°14.758 2°51.462 7 261 16.8 101980 46
2010-09-10 07:48:02 51°14.758 2°51.46 6.9 280 16.8 101980 46